sat.trackr.live / text

‹ back to catalog

SKYKRAFT-3D

NORAD 57956 · 2023-084BZ

PAYLOAD ACTIVE UNKNOWN

§ Identity

Operator
Country
AUS
Launch date
2023-06-12
Launch site
AFWTR
Launch vehicle
Mass (kg)
RCS (m²)

External: N2YO · Heavens-Above · Gunter

§ Orbital elements

Epoch: 2026-08-19T22:15:40.305312Z

Period
87.93 min
Inclination
97.5869°
Eccentricity
0.0009990
Mean motion
16.37754590 rev/d
Perigee alt
165.2 km
Apogee alt
178.3 km
Semi-major
6,549.9 km
B*
5.8350e-4
RAAN
39.5782°
Arg perigee
269.6148°
Mean anomaly
90.4004°
Rev number
16,534

§ Raw data

SKYKRAFT-3D1 57956U 23084BZ  26231.92754983  .05654060  26496-5  58350-3 0  99922 57956  97.5869  39.5782 0009990 269.6148  90.4004 16.37754590165348

JSON: /api/v1/satellites/57956 · /tle

For live sub-satellite position, see the globe view (requires WebGL).

§ Visibility from observer

Set your observer location to see the next 7 days of passes ≥ 10°. The values pass through the URL so the page stays shareable.

No JS? Fill the form by hand. The geolocation button needs JavaScript.